Theta_e
291 290 290 289 289 288 288 288 288 288 288 288 287 287 286 286 286 286 286 286 286 286 286 286 286 286 286 286 285 285 285 286 286 287 286 284 283 283 283 283 283 284 284 284 284 284 284 283 283 284 285 284 284 285 284 285 286 286 285 286 286 286 285 283 282 282 285 287 287 287 287 287 286 288 287 287 288 288 290 290 291 291 292 292 293
290 289 289 288 287 287 287 288 287 287 286 286 286 286 285 285 285 285 284 284 285 285 285 285 285 285 285 285 285 285 285 285 285 286 284 283 282 283 283 282 283 283 283 282 283 283 282 281 281 282 283 282 283 283 282 282 282 282 282 282 282 282 283 281 280 280 279 282 282 284 284 285 283 286 285 285 286 287 287 287 288 288 288 289 290
290 289 288 287 286 286 286 286 286 286 285 285 284 284 284 284 285 284 283 283 284 284 284 284 284 284 284 284 285 284 284 284 285 284 284 282 281 281 282 282 282 281 281 281 281 281 280 280 280 281 282 282 282 282 281 279 280 280 280 281 280 281 281 281 280 278 279 279 282 281 282 283 283 283 285 285 286 286 285 285 285 287 288 289 290
289 288 287 287 286 285 285 285 285 285 284 284 284 284 283 283 283 283 283 283 282 283 283 283 283 283 283 283 284 284 284 284 284 284 283 282 281 281 281 281 281 281 281 280 279 279 279 279 279 280 281 281 280 279 279 279 280 280 280 281 281 281 281 281 281 280 279 278 280 281 282 282 283 284 284 284 283 283 283 284 286 286 288 289 288
288 288 287 286 286 285 284 284 284 284 283 283 283 283 283 283 282 282 282 282 282 282 282 282 282 282 282 283 283 283 283 283 283 283 283 282 281 280 280 281 280 280 280 279 278 278 278 278 279 280 280 278 278 278 278 278 279 279 279 279 279 279 279 280 279 280 278 277 279 281 282 281 282 282 282 281 282 282 283 283 283 284 284 284 285
288 287 286 286 285 284 284 284 283 283 283 283 282 282 282 282 281 281 281 281 281 281 281 281 281 281 281 282 283 283 283 283 283 283 283 282 281 280 280 280 280 280 279 278 278 278 277 278 279 278 278 277 276 277 277 277 278 278 278 278 278 278 278 278 279 278 278 277 278 278 279 279 279 280 281 281 280 280 280 281 281 280 280 280 281
286 286 285 285 284 284 284 283 283 282 282 282 282 282 281 281 280 280 280 280 280 279 279 279 280 280 280 281 282 282 282 283 283 283 282 282 280 279 279 280 280 279 278 277 277 278 277 278 278 277 276 276 275 276 276 277 277 277 278 277 277 277 276 277 277 277 277 276 277 277 277 278 278 277 280 280 279 278 276 274 274 276 277 277 276
285 284 284 283 283 283 283 283 283 282 282 281 281 281 280 280 279 279 279 279 279 278 278 278 279 279 279 280 281 282 282 282 282 282 281 281 279 278 278 278 278 277 277 277 277 277 277 277 277 276 275 275 276 276 276 276 276 275 276 276 275 275 274 275 275 274 274 275 274 274 276 276 277 278 276 275 274 273 274 273 270 272 273 274 275
283 283 282 282 282 282 282 282 282 281 281 280 280 280 279 279 279 279 278 278 278 278 278 278 277 277 278 279 280 281 281 280 280 280 280 280 279 277 277 277 277 276 276 276 276 276 275 276 276 274 275 275 275 276 276 276 275 274 274 274 274 274 273 274 274 273 273 273 273 274 273 273 273 272 270 270 270 270 271 271 270 271 271 271 273
282 281 281 281 281 281 281 280 280 280 280 279 279 279 279 278 278 278 277 278 277 277 277 277 277 277 277 278 279 280 280 279 280 280 279 279 278 277 277 277 276 275 275 275 275 274 274 275 275 274 274 274 275 275 275 276 276 275 274 273 273 272 272 272 272 272 272 272 271 271 269 269 269 269 269 268 270 270 269 269 268 269 270 270 271
281 281 280 280 280 280 279 279 279 279 279 278 278 278 278 278 277 277 276 277 276 276 276 276 276 276 276 277 278 279 278 278 279 279 278 277 276 276 276 275 275 275 275 274 273 273 273 273 273 273 273 273 274 274 275 275 275 274 274 274 274 272 271 270 270 271 270 269 269 269 268 267 268 268 267 267 268 268 268 269 268 269 268 267 266
280 280 279 279 279 278 278 278 278 278 278 277 277 277 277 277 276 276 275 275 276 276 275 275 275 275 276 276 277 277 277 278 277 277 278 276 275 275 275 275 275 274 273 273 272 272 272 272 272 273 272 272 272 272 273 273 273 272 272 272 272 272 272 270 269 269 269 267 267 267 267 265 266 266 266 267 267 267 267 268 267 267 266 266 266
279 279 278 278 278 278 278 277 277 277 277 276 276 276 276 276 275 275 275 275 275 275 275 275 274 275 275 275 276 276 276 277 277 277 277 276 275 275 275 275 274 273 272 272 272 271 272 271 271 272 272 271 272 272 271 271 271 271 271 271 270 270 270 271 272 271 269 267 266 265 265 265 264 265 267 266 267 265 266 266 266 266 266 265 264
278 278 278 277 277 277 277 277 276 276 276 276 276 275 275 275 275 275 275 275 274 274 274 273 273 273 273 274 275 275 275 275 276 277 276 275 274 274 274 273 273 272 271 271 271 271 271 270 270 270 271 270 271 271 270 270 269 269 269 269 269 269 269 270 270 270 269 267 266 264 265 266 264 266 267 268 266 264 265 264 265 265 264 263 265
278 277 277 277 276 276 276 276 276 275 275 275 275 275 274 274 274 274 274 274 274 273 273 273 272 272 272 273 274 274 273 274 275 276 275 274 273 273 273 272 272 272 271 270 270 270 270 270 270 270 270 269 271 271 270 269 268 268 268 267 267 268 268 269 268 268 268 267 266 265 265 266 266 266 267 267 266 266 266 265 265 264 264 265 265
277 277 276 276 276 276 276 275 275 275 274 274 274 274 274 274 273 273 273 273 273 273 273 272 272 271 272 272 272 272 273 273 274 274 274 273 272 272 272 271 271 271 270 270 270 270 271 270 269 269 269 269 271 271 271 269 267 267 266 266 266 267 267 269 268 268 268 267 266 265 266 266 268 267 268 267 266 266 266 266 265 263 263 261 260
276 276 276 276 276 276 275 275 274 274 274 273 273 273 272 272 272 273 272 272 272 272 272 271 270 270 271 271 271 271 271 272 273 273 273 273 271 272 271 271 270 270 269 269 270 270 270 269 269 268 268 268 271 271 271 269 266 266 265 265 265 266 266 267 266 267 267 267 266 267 268 268 268 269 268 268 267 266 264 261 260 262 260 257 258
276 276 275 275 275 275 275 274 274 273 273 273 272 272 272 272 272 272 271 271 271 271 270 270 270 270 270 270 270 270 269 270 271 272 273 273 271 270 270 270 269 269 268 269 270 269 269 267 268 268 268 268 270 270 270 269 266 265 265 264 264 264 265 265 264 264 265 265 265 265 265 266 266 266 266 267 267 266 263 259 260 261 258 259 257
275 275 275 275 275 274 274 274 273 273 272 272 272 271 271 271 271 271 271 271 270 270 270 269 269 269 269 269 270 268 268 268 270 271 271 272 271 270 270 269 268 268 268 268 269 269 268 268 267 267 268 269 270 270 269 268 265 265 264 263 263 263 264 263 261 261 261 261 261 262 262 262 262 262 263 265 265 264 263 262 261 260 257 257 258
275 275 274 274 274 273 273 273 273 272 272 271 271 271 271 270 270 270 270 270 269 269 268 268 267 268 268 268 268 267 266 267 269 269 270 271 271 270 270 268 268 267 267 268 267 268 268 267 267 267 268 269 269 269 268 268 266 264 264 263 262 261 264 262 261 260 259 259 259 260 260 261 261 261 262 262 262 262 263 262 262 260 258 257 257
274 274 274 273 273 272 272 272 271 271 271 270 270 270 270 269 269 269 269 269 268 267 266 266 266 267 268 268 267 267 266 266 266 268 269 270 270 269 268 268 268 267 267 266 267 266 266 267 267 266 267 268 268 268 268 267 266 264 263 263 263 264 265 261 260 259 259 258 259 259 259 260 260 261 261 261 261 261 262 262 261 261 260 258 257
273 273 272 272 271 271 271 271 270 270 270 270 269 268 268 268 268 268 268 267 266 265 265 265 265 266 267 267 266 265 265 265 265 266 267 268 269 269 268 268 269 267 266 266 266 266 266 266 266 266 267 268 267 267 267 266 265 264 264 266 266 265 262 260 259 257 257 257 257 257 257 258 258 259 260 260 260 261 262 261 261 261 261 260 259
272 271 271 270 270 270 269 269 268 268 268 268 267 266 266 266 267 267 266 265 264 264 264 264 264 265 266 266 265 265 265 264 265 264 266 267 268 269 268 268 268 267 266 264 265 265 266 266 265 266 267 267 266 266 265 265 264 264 265 265 265 264 261 258 257 256 256 256 256 256 256 257 257 258 259 259 260 260 260 260 260 260 260 260 261
271 270 269 269 269 268 268 267 267 267 267 267 266 265 265 265 266 266 265 264 263 263 264 263 263 264 264 265 265 264 264 264 264 264 265 266 267 268 268 267 267 266 266 265 265 265 265 265 265 266 266 265 265 264 264 263 263 263 264 264 263 260 258 257 256 256 255 255 255 255 256 257 257 257 258 259 259 259 259 259 259 259 260 259 260
269 269 268 268 267 266 266 266 266 266 266 266 265 264 264 264 264 264 263 263 263 262 263 263 262 263 264 264 264 264 264 264 263 264 264 264 266 267 267 267 266 266 265 265 266 265 265 266 265 265 264 263 263 262 261 261 261 262 262 262 259 258 257 256 255 255 254 254 255 255 255 256 258 258 259 259 259 258 258 258 258 258 259 259 259
268 267 267 266 266 265 264 264 264 265 265 264 263 263 263 263 263 264 262 262 262 261 261 263 262 263 263 263 263 262 263 263 263 263 264 264 264 265 266 266 265 265 265 265 266 266 265 263 263 262 261 260 260 259 259 259 259 259 259 257 257 257 256 255 254 254 254 254 254 254 255 256 257 257 258 257 256 256 256 256 256 256 256 256 256
266 265 265 265 265 264 264 263 263 263 263 263 262 262 263 263 262 262 261 260 260 260 260 260 261 262 262 262 262 262 261 262 262 262 263 264 263 264 264 264 264 264 264 264 264 263 262 261 260 260 259 258 258 258 257 257 256 256 257 257 256 256 256 255 254 254 254 254 254 255 255 256 256 255 255 255 254 255 256 255 255 255 255 255 255
265 264 264 264 264 264 263 262 262 262 262 262 261 262 262 262 261 261 260 260 259 259 260 260 261 261 261 261 261 260 260 261 261 261 262 263 263 264 264 263 263 263 263 264 262 261 259 259 258 259 258 257 257 257 256 256 256 256 256 256 255 255 255 255 255 254 254 255 255 254 254 254 254 254 254 254 254 254 255 255 254 254 255 254 253
264 264 263 263 262 262 262 262 261 261 262 262 262 261 260 261 261 262 263 262 261 260 260 261 262 262 262 261 260 259 260 260 261 263 263 265 264 264 263 263 263 263 265 263 258 258 258 257 257 257 257 256 255 256 256 255 255 255 254 254 255 255 254 254 253 253 254 254 253 253 253 253 253 254 253 253 253 254 255 254 254 254 254 254 252
263 262 262 262 262 261 261 261 261 260 260 260 260 260 263 262 262 261 260 262 263 263 263 260 261 262 262 262 263 260 258 260 264 265 266 266 267 266 266 266 266 265 266 265 260 257 258 257 257 256 255 255 254 254 254 254 254 254 254 255 254 254 254 254 254 254 254 253 253 252 252 252 252 252 252 252 253 253 254 254 253 254 252 252 252
262 262 261 261 261 261 261 260 260 260 260 259 259 259 259 261 264 263 262 261 261 261 263 265 266 266 264 259 261 265 265 265 266 266 266 265 265 265 265 265 266 266 266 260 258 259 257 256 256 256 255 254 254 254 254 254 253 253 253 254 254 253 253 253 253 253 253 252 252 252 252 252 252 252 252 252 252 252 253 253 253 253 252 252 251
261 261 261 261 260 260 260 260 260 259 260 260 259 258 258 258 258 262 262 260 260 261 262 264 265 264 265 264 262 261 262 264 264 265 264 262 262 263 264 264 265 266 265 263 257 257 257 256 255 255 255 254 254 254 254 253 253 253 253 252 252 253 253 253 253 253 252 252 252 252 252 252 252 252 252 252 252 251 252 252 252 252 251 252 251
261 261 260 260 260 260 259 259 259 258 258 259 258 259 257 257 256 257 260 261 260 260 261 262 262 261 261 262 263 262 262 263 264 264 261 262 263 262 263 265 265 265 263 258 257 255 255 255 254 254 254 253 253 254 253 253 253 252 253 252 252 253 253 253 253 252 252 252 252 251 252 252 252 251 251 251 251 251 251 251 251 251 251 250 251
261 260 260 260 259 259 259 259 259 259 259 258 258 258 257 257 255 256 255 255 257 259 260 259 258 258 259 260 259 259 261 261 261 260 261 261 262 263 264 262 263 263 260 255 255 254 255 254 253 253 253 253 253 253 253 253 253 253 252 252 253 253 252 253 252 252 252 252 252 252 252 252 252 251 251 251 251 251 251 251 251 250 250 250 250
260 260 259 259 259 259 259 259 258 258 259 258 257 256 256 256 256 254 254 254 254 254 255 255 257 257 256 256 257 258 259 259 260 261 261 261 262 263 263 259 257 256 256 255 254 253 253 252 253 253 253 253 253 253 253 252 253 252 252 252 252 252 252 252 252 252 252 252 251 251 252 251 251 251 251 250 250 250 250 250 250 250 250 250 250
259 259 259 258 258 259 259 258 258 258 258 257 257 256 256 255 254 254 254 253 253 253 253 254 255 255 255 255 256 256 257 257 258 258 259 260 261 262 257 255 256 255 254 254 254 253 253 253 253 253 253 253 253 253 253 252 252 252 253 252 252 252 252 252 252 252 251 252 251 251 251 251 251 251 251 251 250 250 250 250 250 250 250 250 250
259 258 258 258 258 258 258 258 257 257 257 256 256 255 255 254 254 253 253 253 252 252 253 253 253 253 255 254 254 255 255 255 256 256 257 257 259 258 255 254 254 253 253 253 253 253 252 253 253 253 253 253 252 253 253 252 252 252 252 252 252 251 251 252 252 251 251 251 251 251 251 251 251 251 250 250 250 250 250 250 250 250 250 250 250
258 258 258 258 257 257 256 256 256 256 255 255 255 255 253 253 253 253 252 252 252 252 252 252 252 252 252 253 255 253 252 253 254 254 255 255 254 253 253 253 252 252 252 252 253 253 252 253 253 253 253 253 252 252 252 252 252 252 252 252 252 252 251 251 251 251 250 251 251 251 251 251 251 251 251 250 250 250 250 250 250 250 250 250 250
257 257 257 257 257 256 256 255 255 254 254 254 253 253 252 252 252 252 252 252 252 251 252 252 252 251 252 253 253 253 253 251 252 252 253 253 253 253 252 252 252 252 252 252 252 252 252 252 252 253 253 253 252 252 252 252 252 252 252 252 251 252 251 251 251 251 251 251 251 251 251 251 251 251 251 250 250 250 250 250 250 250 249 249 250
257 257 257 256 256 255 255 254 254 254 253 253 253 253 252 252 252 252 252 252 251 251 251 251 251 251 252 253 252 252 251 251 252 252 252 252 252 252 252 252 252 252 252 252 252 252 252 252 252 253 252 252 252 252 252 252 252 252 252 251 251 251 251 251 251 251 251 251 251 251 251 251 251 251 251 251 250 250 250 250 250 250 250 250 250
257 257 256 256 255 255 254 254 253 253 253 253 252 252 252 252 251 251 251 251 251 251 251 251 251 252 252 252 253 253 252 251 251 252 252 252 252 252 252 252 252 252 252 252 252 252 252 252 252 253 253 252 252 252 252 252 252 251 251 251 251 251 251 251 251 251 251 251 251 251 251 251 251 251 250 250 251 251 250 251 250 250 251 251 250
256 256 255 255 255 254 254 253 253 252 252 252 252 252 251 251 251 251 251 251 250 250 250 251 251 252 252 252 252 252 251 251 252 251 252 252 252 252 252 252 253 252 252 252 252 252 252 252 252 252 252 252 252 252 252 251 251 251 251 251 251 251 251 251 251 251 251 251 250 250 251 251 251 251 250 251 250 250 250 250 250 250 250 251 251
255 255 255 254 254 254 253 253 253 252 252 252 251 251 251 251 251 250 250 250 250 250 250 250 250 251 251 252 251 251 251 251 251 251 251 251 251 251 252 252 252 252 252 252 252 252 252 251 251 252 252 252 252 252 251 251 252 252 251 251 251 250 250 251 251 251 251 251 251 251 250 250 250 250 250 250 250 250 250 250 250 250 251 251 251
254 254 254 254 253 253 253 253 252 252 252 251 251 251 251 251 251 251 250 250 250 250 250 250 250 250 250 251 251 250 250 250 250 250 250 250 250 251 251 251 252 252 252 252 252 252 251 251 251 251 251 252 252 251 251 251 251 251 251 251 250 250 250 250 250 251 251 251 251 250 250 250 250 250 250 250 250 250 250 250 251 251 251 250 250
254 253 253 253 253 252 252 252 252 252 251 251 251 251 251 250 250 250 250 250 249 250 250 250 250 250 250 250 250 250 250 250 250 250 250 250 250 250 251 251 251 251 251 251 252 251 251 251 250 250 250 250 251 251 251 251 251 251 251 251 250 250 250 251 251 251 251 250 250 250 250 250 250 250 250 250 250 250 250 251 251 251 250 250 250
253 253 252 252 252 252 252 252 252 252 251 251 251 250 251 251 250 250 249 249 249 249 249 249 250 249 249 249 250 249 249 249 249 250 250 250 250 251 251 251 251 251 251 251 251 251 251 250 250 250 250 250 250 251 251 251 251 251 251 251 251 251 251 252 252 251 251 250 250 250 250 250 250 250 251 251 251 251 251 251 251 251 250 250 250
253 252 252 252 252 251 251 251 251 251 251 250 250 250 250 250 250 249 249 249 249 249 249 249 249 249 249 249 249 249 250 249 249 250 249 250 250 250 250 250 250 250 250 250 250 250 250 250 250 250 249 250 250 250 250 251 251 251 252 252 252 252 252 252 252 251 251 251 251 251 250 250 250 251 251 251 251 251 251 250 250 250 250 250 250
252 252 252 252 251 251 251 251 250 250 250 250 250 250 249 249 249 249 249 249 248 248 249 249 249 249 249 249 249 249 249 249 249 249 249 249 250 250 250 249 249 250 250 250 250 250 250 250 250 250 250 250 249 250 250 250 251 251 251 252 252 252 252 252 252 251 252 252 251 251 251 251 251 251 251 251 251 251 250 250 250 250 250 250 250
252 252 251 251 251 251 250 250 250 250 250 250 249 249 249 249 249 249 249 249 249 249 249 249 249 249 249 249 249 249 249 249 249 249 249 249 249 249 249 249 249 249 249 249 249 250 250 250 250 250 250 250 250 250 250 250 250 251 251 251 252 252 252 252 252 252 252 252 252 252 252 252 251 251 251 251 251 251 250 250 250 250 250 250 250
252 251 251 251 250 250 250 250 250 250 250 250 249 249 249 249 249 249 249 249 249 248 248 248 248 248 248 248 248 249 249 248 248 249 249 249 249 249 249 249 249 249 249 249 249 250 250 250 250 250 250 250 250 250 250 250 250 251 251 251 251 252 251 251 251 251 252 252 252 252 252 252 251 251 251 251 251 250 250 249 250 250 250 250 250
251 251 251 250 250 250 250 249 249 249 249 249 249 248 248 248 248 248 248 248 248 248 248 248 248 248 248 248 248 248 248 248 248 248 248 248 248 249 249 248 248 248 249 249 249 250 250 250 250 250 250 250 250 251 251 251 251 251 251 251 251 251 252 252 252 252 253 253 253 252 252 251 251 251 251 251 250 250 249 250 250 250 250 250 250
Wind_Speed
9 8 8 9 9 9 8 8 8 8 8 8 8 8 7 6 6 6 5 6 7 8 8 8 8 8 8 8 8 8 9 8 8 7 8 9 8 8 8 8 9 7 8 9 8 8 8 9 9 9 9 8 8 7 8 9 8 7 7 6 6 6 6 7 8 10 8 7 9 10 13 14 12 11 13 12 12 11 13 12 13 12 11 11 12
9 9 8 8 9 9 8 8 8 7 9 8 8 7 7 6 6 6 7 7 7 8 9 7 7 7 8 8 8 8 9 9 8 8 8 8 8 6 7 8 8 8 8 9 9 8 8 9 10 9 9 9 8 8 9 9 9 8 8 7 7 7 8 8 8 9 11 9 9 10 11 11 13 12 12 14 14 13 13 12 11 12 12 11 12
9 8 9 9 10 9 8 8 8 9 9 8 8 8 6 6 5 6 7 7 7 7 7 7 7 7 8 8 8 8 8 8 8 8 8 9 9 8 8 8 8 8 9 9 9 9 9 9 10 9 8 8 8 8 9 10 8 8 9 7 8 8 8 8 8 10 11 10 9 11 10 11 11 13 13 12 13 13 15 14 13 11 10 12 11
9 9 9 10 10 9 9 9 9 9 9 8 9 7 6 6 5 6 6 6 7 7 8 7 7 8 8 8 8 8 8 8 7 7 8 8 8 8 7 8 7 8 8 8 9 8 9 8 9 9 9 9 9 9 9 10 8 8 8 7 7 8 8 8 8 9 10 11 10 9 10 10 10 11 11 12 13 14 12 13 13 12 13 11 12
9 9 10 11 10 10 10 9 9 9 9 8 9 8 7 6 5 6 6 7 7 8 7 7 7 7 7 7 8 8 7 7 7 7 7 7 7 6 6 6 7 7 7 8 8 8 8 8 9 9 10 9 9 9 9 12 9 9 9 9 9 9 8 8 9 9 10 11 10 8 9 9 9 10 11 12 12 12 13 13 12 13 14 14 13
9 9 9 10 10 10 10 9 10 10 9 9 8 7 6 6 6 6 6 8 8 7 7 6 6 7 7 7 7 7 7 6 6 6 6 6 6 6 5 5 6 7 7 7 8 8 8 8 9 10 10 10 10 10 10 11 10 10 11 10 10 10 10 10 9 10 10 10 10 11 9 10 10 9 10 12 12 13 12 12 13 13 13 14 12
9 9 9 9 9 9 9 9 9 9 8 8 7 7 7 7 7 7 6 7 8 7 6 6 6 6 6 6 7 7 7 6 6 6 6 5 6 6 6 6 6 6 7 7 7 7 8 8 9 10 10 10 10 11 11 12 10 12 11 11 10 10 10 9 10 11 10 11 10 10 10 9 10 11 10 12 12 12 14 14 13 12 13 14 16
10 9 9 9 9 9 9 9 9 9 8 8 7 7 7 7 7 6 6 7 7 7 6 6 6 6 6 6 6 7 7 7 7 6 5 5 5 6 5 5 6 6 6 7 7 7 7 8 9 9 10 10 11 10 11 10 10 10 10 10 11 11 10 10 10 10 10 10 10 11 10 11 10 9 11 12 12 11 9 12 16 16 13 13 14
10 10 9 9 9 9 9 8 8 8 8 8 8 7 7 7 7 6 6 7 6 6 5 6 7 7 7 6 6 7 8 7 6 5 4 4 5 5 5 6 6 5 5 6 6 7 7 6 7 9 10 12 14 13 13 13 10 10 10 11 12 11 11 10 10 10 10 10 10 10 10 11 11 12 12 12 13 14 15 14 15 14 15 15 13
11 10 10 9 8 8 8 8 8 8 8 8 7 7 7 7 7 7 7 6 6 5 5 5 6 7 7 7 7 8 7 6 8 11 7 4 4 4 4 5 5 5 5 5 5 6 6 6 6 11 11 13 13 15 16 15 14 11 10 11 11 11 11 11 11 10 10 10 10 11 11 11 11 12 13 14 14 15 16 15 15 16 16 14 12
10 9 9 8 9 9 8 8 8 8 7 7 7 7 7 6 6 7 7 6 6 5 4 5 5 6 6 6 8 7 6 7 11 9 9 8 5 4 4 4 5 5 5 5 5 5 5 6 5 7 9 11 11 15 15 15 14 15 15 15 12 11 10 11 10 10 10 9 9 9 10 12 12 12 13 14 14 15 14 15 15 14 14 15 16
9 9 9 9 9 9 8 9 8 8 7 7 7 6 6 6 6 6 6 6 5 5 5 4 5 5 5 6 8 7 7 9 10 8 8 8 5 3 4 4 4 4 5 5 4 4 4 5 5 5 6 9 9 10 11 13 12 13 13 11 10 11 12 10 11 9 9 8 9 10 11 12 14 13 13 13 14 15 14 14 13 14 16 15 14
10 10 10 10 10 9 9 9 9 8 7 7 6 6 6 6 6 6 6 5 5 5 4 4 4 5 6 7 7 8 7 9 9 8 8 8 6 3 4 4 4 4 4 4 4 4 4 4 4 5 5 10 9 9 9 9 10 11 10 9 8 10 10 11 9 8 9 9 10 11 11 13 14 12 13 15 15 16 15 13 14 14 14 15 14
11 11 11 10 10 10 10 9 9 8 8 7 7 7 6 6 6 5 5 5 5 5 5 5 4 5 5 6 7 8 7 9 9 9 9 8 6 4 4 4 4 4 4 4 3 3 4 3 3 4 5 6 7 9 9 9 8 8 7 7 6 8 8 9 8 11 11 9 10 12 12 12 13 14 15 15 16 15 15 15 15 16 15 15 18
11 11 11 11 10 10 10 9 9 9 8 8 7 7 7 6 6 5 5 5 5 5 4 4 4 4 4 5 6 7 6 9 9 9 8 7 6 4 4 3 3 3 3 3 2 2 2 3 3 3 5 5 7 11 10 9 8 7 7 7 7 7 6 5 5 6 8 8 10 12 13 13 12 14 14 13 14 13 13 15 16 16 16 16 13
12 11 11 11 11 10 10 10 9 9 9 8 8 8 7 6 6 6 5 5 4 4 4 4 4 4 4 5 6 7 7 10 9 9 8 6 4 2 3 2 3 3 3 2 1 2 2 3 3 3 4 5 9 14 13 10 7 8 8 8 7 6 6 3 8 9 10 10 11 13 13 14 16 15 15 14 13 12 13 12 12 13 13 12 13
12 12 11 11 10 10 9 9 9 9 9 8 8 7 7 7 6 5 5 5 5 4 4 4 4 4 4 4 5 6 6 8 9 8 8 5 3 2 2 2 2 2 2 1 1 1 2 3 3 3 4 5 10 13 14 13 8 8 8 8 7 6 7 5 5 11 14 16 16 17 19 19 20 21 20 20 15 15 12 11 11 12 11 13 12
11 11 11 10 10 10 9 9 8 8 8 8 8 7 6 5 5 4 5 5 5 4 3 4 4 4 3 4 4 5 5 7 8 7 7 6 3 2 1 2 2 2 1 1 1 1 3 4 3 4 5 6 11 13 15 12 8 8 8 8 8 7 8 6 5 8 12 13 14 16 16 18 19 20 19 18 18 14 11 10 12 11 11 13 13
11 11 11 10 9 9 9 8 8 7 7 7 7 7 6 5 5 4 4 4 4 4 3 3 3 3 3 4 5 5 4 5 7 6 6 5 2 1 1 1 2 1 1 1 1 2 2 2 3 4 6 8 12 13 15 12 8 8 9 8 8 8 9 7 8 10 11 10 9 10 9 12 11 10 12 17 16 12 8 9 9 9 10 12 13
11 10 10 10 9 9 8 8 7 7 7 7 7 6 5 5 5 4 4 3 3 3 2 3 2 3 3 3 4 4 3 2 4 5 5 4 3 2 0 1 1 1 1 1 2 1 1 1 1 4 8 10 12 14 14 14 10 8 7 6 9 9 10 7 8 8 9 9 9 9 9 9 9 9 9 9 9 9 9 8 8 9 9 10 12
11 11 10 10 9 9 8 8 8 7 7 7 7 6 5 5 5 5 4 4 4 3 3 2 2 2 3 3 4 3 3 1 2 3 4 4 3 2 1 1 0 1 1 1 2 1 2 1 1 4 8 10 12 13 14 13 12 7 6 7 9 12 13 8 9 9 7 8 8 8 8 8 7 8 7 7 8 9 9 9 9 8 9 9 11
11 11 11 11 10 9 9 8 7 6 6 6 7 6 5 5 4 4 4 4 4 3 3 2 1 1 2 3 3 2 3 3 2 4 4 5 3 2 1 1 2 1 1 2 2 2 2 1 2 5 9 11 12 13 13 12 11 6 7 12 15 15 10 7 6 6 6 6 6 7 7 7 7 8 9 9 8 9 12 10 10 10 10 10 11
12 11 11 11 10 10 9 8 7 5 5 6 6 6 5 5 5 5 5 4 4 3 2 1 1 2 3 3 2 1 0 0 3 3 5 5 5 3 1 1 2 1 2 3 3 2 2 2 3 6 9 11 12 13 11 11 8 7 12 13 14 14 10 4 5 5 6 6 7 6 7 7 7 8 8 9 10 9 10 10 11 12 11 11 13
12 11 10 10 10 9 8 8 7 6 6 6 6 6 6 5 5 4 4 4 3 3 2 2 1 2 3 3 2 2 1 1 2 3 4 6 6 5 2 2 3 3 3 3 3 3 3 3 4 7 9 10 11 11 9 8 7 10 12 13 13 10 5 4 5 5 6 7 7 7 7 8 8 9 9 9 9 11 11 11 12 12 12 12 13
11 10 10 9 9 8 8 7 7 6 6 6 6 5 5 5 4 4 4 2 3 2 2 2 2 2 3 3 3 2 1 2 3 3 4 6 7 7 5 4 4 6 4 4 5 4 5 6 6 7 8 9 10 8 6 5 8 10 12 12 10 4 4 5 5 6 7 7 8 9 10 8 10 12 11 11 12 13 12 13 13 13 14 15 15
10 10 9 9 9 8 8 7 6 6 5 5 5 4 5 4 4 4 4 3 2 3 2 2 2 3 3 3 2 2 2 3 3 4 4 4 5 7 7 6 6 7 8 6 8 8 5 3 4 6 5 5 4 4 4 4 8 10 10 8 5 4 4 5 6 7 8 8 9 10 10 11 11 11 13 13 11 11 11 11 11 12 11 12 13
10 9 9 9 8 8 8 6 6 6 5 5 4 4 4 4 4 4 4 3 2 2 2 2 2 3 3 3 2 2 2 3 3 4 4 3 4 5 5 4 7 8 6 6 5 2 1 2 2 3 3 4 4 3 4 5 4 4 4 4 4 5 5 5 6 7 8 9 9 10 10 11 11 11 10 10 11 11 10 11 11 12 12 12 13
10 9 9 8 7 7 7 8 7 5 5 5 5 4 4 4 4 4 4 4 4 3 3 3 3 3 3 3 3 4 4 4 4 4 5 5 5 6 5 5 5 5 6 4 4 2 2 2 3 2 1 2 2 2 2 2 3 4 4 4 5 6 8 10 10 9 9 9 10 10 10 10 10 10 10 10 10 11 10 10 11 13 12 12 13
9 10 8 7 7 6 6 6 5 6 6 4 3 4 4 3 4 3 3 4 4 4 3 3 3 4 4 5 5 5 6 5 5 6 8 12 10 7 5 5 6 6 8 7 5 2 2 2 3 2 3 2 3 3 3 3 4 4 5 6 6 6 6 5 6 7 8 8 9 10 10 10 10 10 10 11 10 10 10 11 11 12 13 12 13
9 8 7 7 7 7 7 6 5 4 5 4 5 1 3 8 4 4 3 2 6 7 7 5 4 4 5 6 6 6 6 6 10 13 13 13 11 10 9 10 12 9 9 12 6 3 2 2 3 3 3 3 3 3 4 4 4 5 5 6 6 6 6 7 7 8 8 8 9 9 10 10 11 10 11 11 11 11 11 11 12 11 12 13 13
7 8 7 7 8 6 6 6 5 5 4 5 3 4 3 2 6 6 4 5 3 5 8 10 11 11 6 5 6 11 11 12 13 12 12 9 8 9 11 12 12 13 7 7 2 2 1 3 4 3 3 3 4 4 4 4 6 6 7 7 7 7 7 7 7 7 8 9 9 10 10 10 11 10 11 11 12 12 11 10 11 11 11 12 14
7 7 7 7 8 7 7 6 6 5 5 5 4 4 3 3 2 3 8 5 4 6 8 10 10 7 7 4 4 3 6 9 11 13 7 5 8 11 14 13 14 14 8 3 2 3 3 3 4 4 4 4 5 4 5 6 6 6 6 6 7 7 7 8 7 7 9 9 10 10 10 10 10 11 11 11 12 12 12 12 11 12 12 12 13
8 8 8 8 6 7 5 6 6 5 5 6 4 4 4 3 4 4 3 5 6 6 8 7 4 4 6 7 8 8 8 8 11 10 9 10 11 12 12 17 15 12 3 4 3 3 4 4 4 4 4 5 5 5 6 6 6 6 7 7 8 8 8 8 9 9 9 10 9 10 10 10 10 11 11 11 11 12 12 12 12 12 12 13 14
7 7 8 9 8 7 6 6 5 5 4 4 4 4 3 4 3 2 2 2 2 2 4 4 3 4 5 7 7 8 10 11 11 10 11 10 12 14 15 8 3 7 2 1 3 4 4 5 5 5 5 5 5 6 6 6 6 7 7 8 8 8 8 8 8 9 8 9 9 10 10 10 10 10 11 10 11 12 12 13 12 13 12 13 15
7 7 9 8 6 6 6 6 5 5 5 5 5 5 4 4 4 4 3 3 3 2 3 3 3 3 4 5 7 9 10 10 10 11 12 13 13 14 14 6 5 5 4 1 2 4 4 5 6 5 5 6 6 6 6 6 7 7 7 7 8 8 8 7 8 9 9 9 10 10 9 10 10 10 10 11 11 12 12 12 12 12 14 14 14
8 8 8 7 5 6 6 6 5 5 5 5 5 4 4 4 4 3 3 3 3 3 4 3 3 3 7 9 11 11 9 8 9 11 12 12 12 14 6 5 8 5 3 4 4 4 5 5 6 7 6 7 7 7 7 7 7 7 7 7 8 8 8 8 8 8 9 9 10 11 10 10 10 10 11 11 12 12 12 13 13 13 14 14 14
7 6 6 6 6 5 5 5 5 5 5 5 5 4 4 4 3 3 3 3 3 4 4 5 4 5 5 5 7 6 6 9 11 12 13 12 12 8 4 5 5 4 3 5 4 5 5 6 5 6 8 7 7 8 7 7 8 8 8 8 8 9 9 8 9 8 9 10 10 10 11 11 10 10 10 11 12 11 12 13 13 15 14 17 18
7 6 6 7 7 6 6 5 5 7 5 5 4 4 4 4 3 4 3 4 4 3 4 4 4 5 6 4 1 2 4 8 11 11 10 7 4 3 4 4 4 5 5 5 5 5 6 6 6 5 8 8 8 7 7 8 8 8 8 8 8 9 11 11 12 11 10 10 10 10 10 10 10 10 10 11 12 12 12 12 13 14 15 16 14
5 7 9 10 8 6 6 6 6 6 5 5 5 4 4 3 4 4 4 4 4 4 4 4 5 5 6 4 4 4 4 5 4 4 4 4 3 4 4 4 4 5 5 6 6 7 7 7 6 6 8 8 7 8 7 8 8 8 8 8 9 8 9 8 8 8 8 9 9 10 10 10 10 10 11 11 12 12 13 14 13 14 15 15 15
6 6 7 10 5 6 5 5 4 4 4 4 4 4 5 4 4 4 4 4 5 5 4 5 5 6 5 4 4 4 5 6 6 5 5 5 5 5 4 5 5 6 6 7 6 7 8 7 6 8 9 8 8 8 8 8 8 8 8 8 8 9 9 9 9 8 9 9 10 10 10 10 11 11 11 11 12 12 13 14 14 14 14 15 17
5 5 6 6 5 5 4 4 5 4 4 3 3 3 4 4 4 4 5 5 5 5 5 5 6 6 5 6 9 9 7 7 7 7 6 6 6 6 5 6 6 7 7 6 7 8 9 8 8 9 9 9 8 8 8 7 8 8 8 8 9 9 9 10 10 10 10 10 10 10 10 10 11 10 12 12 12 14 14 14 14 14 15 15 16
5 5 5 4 5 4 4 4 4 4 5 4 5 5 4 4 5 5 5 5 5 5 6 7 6 6 7 12 12 12 8 7 7 7 8 7 8 7 7 7 7 6 7 7 6 7 8 8 9 9 9 9 8 8 8 8 8 8 8 8 9 9 9 10 10 10 10 10 10 10 10 10 11 12 13 13 13 13 13 14 14 14 14 14 15
4 3 4 4 5 5 5 5 4 4 5 5 5 5 5 5 5 4 5 5 6 6 6 7 7 6 7 10 10 10 8 8 8 8 8 8 9 9 9 9 7 7 7 7 8 9 9 9 9 9 10 10 9 8 8 8 8 8 9 9 9 9 10 10 10 10 9 9 10 10 11 11 11 11 11 12 12 13 14 15 14 13 13 15 15
4 3 2 3 4 5 4 4 4 5 5 6 5 5 5 5 5 5 5 5 6 6 7 7 7 7 7 7 7 7 7 8 7 8 8 8 9 10 9 7 7 7 8 8 8 8 8 9 9 10 10 10 9 9 9 9 8 9 9 9 9 10 10 10 10 9 9 10 10 11 11 11 12 11 12 12 12 13 14 14 14 14 15 15 16
3 3 4 4 5 4 5 5 5 5 4 4 5 5 5 5 5 6 6 6 6 7 8 7 7 7 7 7 7 8 8 9 8 8 9 9 10 10 8 7 8 10 9 8 8 8 8 9 9 9 9 10 9 9 9 9 9 9 9 10 10 10 10 10 9 9 10 10 10 10 11 11 12 12 12 12 13 14 14 14 14 16 16 15 15
3 3 2 4 4 4 4 5 4 5 5 5 5 5 5 6 6 6 6 7 7 7 7 8 8 7 7 7 7 7 8 8 8 9 9 10 10 9 7 8 9 9 8 8 8 8 9 9 9 9 10 9 9 9 9 9 9 10 10 10 11 12 11 10 9 9 10 10 10 10 11 12 12 12 14 14 13 13 14 15 15 14 15 16 17
4 4 4 5 5 5 5 4 5 5 5 5 6 6 6 6 7 7 7 8 8 7 8 8 7 8 7 7 7 8 8 8 8 9 10 10 10 10 10 10 10 9 9 8 8 9 9 10 10 10 10 10 10 10 10 10 10 10 10 10 11 11 10 9 9 9 10 10 10 10 11 11 12 12 14 14 13 14 15 15 15 16 15 15 15
4 4 5 4 5 5 5 5 5 5 5 5 6 6 6 6 7 7 7 8 8 8 8 7 8 7 7 7 8 8 8 8 8 8 9 9 9 10 10 10 9 9 8 8 8 9 9 9 10 10 9 9 9 10 10 10 10 10 10 10 10 11 12 12 10 11 10 11 11 11 11 12 12 13 13 14 14 14 15 15 14 14 15 15 15
5 5 5 5 5 5 5 5 4 6 6 6 6 7 7 7 7 8 8 8 8 8 8 8 8 8 9 8 8 8 8 8 8 8 9 9 9 9 9 9 9 9 9 9 9 9 9 9 10 10 10 9 9 9 9 10 11 10 11 11 13 19 19 18 13 11 15 13 12 12 13 12 13 14 14 14 15 14 14 15 15 14 14 14 15
5 5 5 5 5 6 5 5 6 6 6 7 7 7 8 8 8 8 8 8 8 8 8 9 8 9 9 9 9 9 8 8 8 8 8 9 9 9 9 9 9 8 8 9 9 8 9 9 10 10 10 10 10 10 10 10 10 11 11 11 17 19 18 18 19 20 16 11 12 11 11 12 13 14 13 14 14 15 15 14 14 14 14 15 15
5 5 6 6 6 6 6 6 7 7 8 8 7 8 8 8 9 9 9 9 9 9 9 9 8 9 9 9 9 8 8 8 8 8 8 8 9 9 9 8 8 8 8 9 9 9 9 9 9 10 9 9 9 9 9 10 10 10 13 18 20 20 20 19 15 15 17 12 9 10 11 13 13 13 13 13 13 14 15 16 15 14 14 13 14
Wind_Direction
126 125 126 125 127 125 123 122 117 114 111 109 105 103 102 100 98 100 100 94 94 89 86 84 81 80 77 71 64 61 58 55 51 51 53 50 44 38 34 35 38 39 37 35 33 29 28 28 25 18 15 15 13 13 14 3 3 5 359 351 348 349 343 326 310 305 305 313 314 317 324 325 321 330 325 324 324 325 323 320 321 320 319 318 314
135 133 131 132 132 131 128 125 120 116 113 107 104 105 104 101 106 108 99 92 89 88 88 87 85 83 81 74 69 64 61 59 54 54 53 50 45 38 34 35 38 38 36 35 31 28 23 24 21 17 14 15 15 19 18 4 1 360 356 351 346 343 344 332 318 311 309 318 314 318 314 323 315 327 326 326 325 325 325 326 322 321 316 311 311
138 138 138 138 136 132 130 126 124 120 114 109 108 108 106 110 114 111 103 97 88 87 90 91 89 86 82 75 70 65 62 60 59 58 57 52 46 42 38 36 37 36 36 34 29 23 22 23 20 15 12 16 21 19 15 2 356 358 354 349 348 342 341 337 325 316 315 312 317 315 319 321 319 321 327 324 323 326 325 325 323 318 316 315 313
144 143 142 140 138 136 132 130 127 123 116 113 116 116 116 116 115 109 104 101 97 90 90 89 88 86 82 79 74 71 67 66 65 63 63 58 52 47 43 44 42 40 40 37 31 26 23 23 19 14 14 19 18 12 8 359 359 356 354 351 349 343 340 331 325 316 314 311 318 319 319 320 320 324 326 323 324 326 324 318 318 321 326 332 337
146 146 145 141 141 138 136 134 129 123 118 120 121 120 121 120 113 108 109 105 99 96 89 86 87 87 87 87 84 79 75 72 71 71 72 66 60 56 53 52 49 47 43 41 34 30 26 27 19 19 19 19 10 10 5 1 1 358 355 354 349 342 336 331 325 324 317 313 314 318 321 319 320 321 324 324 327 325 323 325 330 334 334 334 330
148 147 147 145 143 141 139 135 128 124 124 125 125 123 123 120 114 107 107 105 98 94 93 93 94 95 95 92 89 86 80 77 75 77 77 75 63 58 58 56 56 51 43 39 35 32 29 26 24 25 20 19 9 5 3 0 1 357 355 352 347 342 338 333 331 328 321 316 318 320 325 324 323 325 328 335 332 327 328 333 335 333 330 326 325
150 150 151 148 144 145 142 137 131 130 131 130 127 126 124 121 116 113 110 105 103 102 101 104 102 99 95 93 90 86 81 74 70 66 70 75 65 54 53 54 56 52 41 41 38 33 32 29 29 27 24 17 12 9 6 2 359 357 356 354 349 347 341 337 336 331 328 325 324 324 322 327 329 325 340 346 337 339 337 332 324 324 321 319 316
153 153 152 150 148 146 142 135 132 132 131 130 129 127 126 121 115 114 112 106 104 109 116 114 108 99 92 89 88 83 76 68 59 56 58 69 66 52 52 53 55 52 48 46 41 37 35 33 34 28 26 21 21 15 10 4 357 357 355 353 346 342 337 336 334 332 330 329 328 324 328 328 329 339 344 341 335 329 333 326 316 316 315 312 309
154 156 155 154 150 145 138 130 129 130 131 131 131 130 126 121 119 117 112 106 104 108 114 114 109 102 93 88 88 84 75 62 47 37 50 66 73 55 56 57 53 53 50 51 47 40 34 32 39 30 28 25 24 18 14 8 1 357 354 353 347 345 342 343 340 336 333 329 325 329 333 332 335 340 336 337 331 326 325 323 310 312 311 310 308
158 159 158 152 145 141 133 129 130 132 133 134 133 132 128 124 119 115 111 106 106 107 105 102 102 102 100 93 91 85 74 66 62 57 52 62 67 60 67 69 59 55 52 49 42 38 33 30 37 32 26 21 20 14 10 7 8 8 357 356 350 351 347 344 340 336 334 333 335 338 332 330 333 334 331 326 323 325 321 322 317 315 312 309 305
158 156 150 144 140 137 135 134 135 137 137 134 135 133 127 123 117 112 108 107 109 107 106 104 101 99 99 97 94 85 77 74 67 57 63 64 60 60 73 72 70 62 55 46 37 27 27 25 23 22 23 17 16 11 6 5 5 2 357 352 351 348 344 339 335 336 339 339 333 337 332 327 327 332 327 322 329 323 321 318 313 315 317 319 319
153 150 145 145 145 145 142 140 140 139 139 137 135 132 128 125 122 117 115 114 111 109 104 101 103 105 105 102 98 88 81 70 57 57 70 72 61 68 79 80 74 69 55 42 42 26 26 24 18 21 24 15 7 6 5 2 2 356 348 344 343 347 342 339 329 344 344 342 337 338 332 329 326 329 325 330 323 319 319 314 318 318 319 317 313
154 151 152 152 152 148 147 145 143 142 140 137 134 132 130 128 124 122 118 114 114 113 112 110 107 108 110 110 102 89 80 61 53 60 75 75 78 83 85 89 83 73 64 52 47 33 25 20 24 14 34 13 4 4 1 357 359 351 338 337 341 341 337 331 347 13 353 353 340 334 332 326 324 320 328 323 320 317 318 320 320 318 317 310 311
158 155 154 155 153 152 150 148 146 142 140 138 137 137 135 133 127 123 123 125 122 120 122 116 110 108 109 113 104 90 75 54 52 61 74 75 79 87 87 82 81 86 77 55 50 46 31 24 26 21 21 9 358 4 359 359 356 344 339 341 341 333 334 336 23 17 9 354 340 324 320 322 314 315 321 322 323 322 323 319 321 316 313 307 303
159 157 156 156 155 153 151 149 145 142 142 141 142 141 139 134 134 133 135 137 138 136 137 126 113 106 110 114 108 93 72 54 51 55 62 73 72 91 83 78 102 94 85 64 64 66 45 43 29 29 15 5 354 4 359 359 356 343 339 337 339 331 336 340 23 4 353 342 328 319 315 315 313 315 317 319 318 315 315 313 314 313 306 302 305
158 157 156 157 156 154 151 148 145 145 146 146 146 144 141 140 138 137 137 133 133 135 134 126 117 113 114 119 119 101 75 55 50 49 54 77 76 92 91 98 103 102 76 69 73 68 73 42 28 22 13 355 350 3 0 1 354 341 341 336 333 330 329 359 33 353 337 331 324 318 315 314 316 317 318 320 317 317 314 311 314 307 308 322 312
161 159 156 155 153 151 149 146 147 149 150 147 145 143 140 139 139 145 145 143 144 141 135 122 116 113 116 121 123 112 86 53 46 45 45 75 79 92 117 99 123 110 69 61 148 121 103 51 19 18 2 344 351 1 358 1 355 341 337 333 330 328 329 330 349 332 327 327 321 317 318 319 321 321 322 323 323 325 321 321 318 312 327 315 310
160 156 154 151 148 146 145 147 148 150 150 147 142 138 137 135 140 144 146 142 136 131 131 126 122 109 106 112 118 117 88 55 45 34 36 56 93 116 124 116 119 130 119 292 179 168 119 91 18 13 356 342 352 360 358 358 355 341 335 330 329 334 329 340 329 325 330 329 323 322 324 323 324 323 321 321 322 326 321 319 314 321 319 311 308
156 154 148 143 141 137 140 143 147 147 143 140 139 140 141 139 132 131 130 128 126 125 135 124 123 115 106 101 100 104 85 62 44 26 28 39 89 134 138 128 144 97 142 240 253 166 177 144 82 3 349 342 352 357 356 356 354 340 334 330 327 333 327 4 336 334 334 331 329 324 321 314 312 309 307 311 316 320 318 313 316 319 314 312 309
145 138 135 135 133 133 133 137 140 142 141 137 136 134 130 134 135 130 130 126 125 114 105 102 105 107 114 117 109 98 80 56 50 19 12 23 54 117 55 109 137 121 289 240 224 273 188 200 151 353 342 342 352 354 354 352 352 339 331 331 325 328 330 353 338 337 325 317 314 310 302 299 298 296 300 305 309 309 309 310 313 310 308 308 307
136 135 134 133 132 132 132 136 136 136 138 135 129 127 128 132 131 134 131 121 111 97 90 87 101 121 121 128 116 82 63 33 11 11 354 1 30 100 139 69 209 204 230 215 270 207 250 270 339 342 334 340 349 350 349 347 347 337 328 328 323 323 335 334 332 330 314 309 304 301 299 298 302 302 301 304 307 307 306 304 303 301 299 299 300
135 135 136 135 134 131 131 130 129 131 131 132 131 121 113 113 119 123 122 113 108 105 105 90 106 136 146 136 117 122 84 32 325 325 339 343 344 26 110 292 359 187 272 256 240 234 239 261 313 325 328 339 347 345 344 342 343 334 325 327 327 332 341 331 325 319 306 300 297 298 300 302 309 316 313 310 303 308 311 303 295 293 291 287 287
137 135 134 133 132 132 131 129 124 122 125 126 125 122 118 114 116 117 118 116 118 124 126 127 148 183 178 159 156 146 207 114 310 305 314 324 319 309 4 32 357 336 261 251 259 243 265 285 299 306 325 339 342 341 340 340 338 332 330 330 329 339 339 323 308 299 300 300 299 297 301 303 304 306 304 305 303 300 300 297 292 290 284 280 278
137 132 130 129 126 121 119 117 116 116 122 124 123 127 128 128 125 124 122 125 128 142 166 154 204 199 201 193 182 174 241 297 280 286 298 309 312 295 288 332 345 328 299 262 267 265 262 272 292 316 331 335 339 339 341 342 335 330 329 327 335 334 317 306 300 303 304 304 303 304 304 304 299 297 300 301 300 300 298 293 289 288 286 283 282
130 128 127 125 122 121 119 120 121 126 129 134 135 129 127 124 114 115 104 114 134 148 189 163 189 222 215 214 219 244 263 288 284 268 282 298 303 295 284 304 321 316 298 280 270 242 249 288 314 324 332 337 341 340 340 341 333 327 322 326 329 303 309 306 308 311 312 305 302 299 299 292 300 301 297 299 300 300 296 294 291 288 285 282 280
121 122 122 123 125 125 122 119 117 118 116 108 104 106 113 121 130 143 132 151 155 166 186 181 201 221 218 227 223 246 279 289 280 278 275 280 291 285 280 290 298 299 292 276 265 263 277 325 325 337 340 350 344 338 333 322 320 313 311 312 301 304 305 314 311 312 300 296 293 287 288 298 299 302 303 298 294 289 293 292 294 291 289 288 287
118 119 124 126 126 130 129 132 129 124 115 114 113 113 120 131 147 152 153 146 160 166 168 185 214 224 216 242 249 268 269 282 275 278 284 280 284 269 256 268 286 289 280 268 243 195 142 47 348 335 334 335 319 299 292 297 301 301 302 301 304 303 304 302 299 292 288 286 287 286 291 292 297 296 294 294 290 289 290 290 291 291 293 292 290
127 129 128 126 130 130 127 127 129 129 130 126 130 134 142 152 150 167 159 165 166 186 177 194 204 217 218 240 240 256 265 264 268 249 274 277 270 259 252 268 275 274 276 252 161 167 99 336 318 299 279 317 311 295 293 292 285 281 291 302 301 298 290 282 279 276 271 277 283 289 289 293 294 294 294 290 287 290 293 291 291 293 294 295 293
119 121 120 119 119 124 132 135 136 134 138 132 144 153 156 164 164 181 176 164 177 178 191 205 213 232 220 229 237 251 267 250 246 256 250 256 247 244 255 271 276 269 283 164 118 141 184 211 271 286 304 305 300 302 298 286 291 290 288 289 298 297 288 283 280 277 283 286 286 290 292 293 292 291 291 291 290 293 295 292 289 289 293 291 284
119 123 125 128 135 141 143 141 133 130 141 143 149 113 164 166 186 175 210 217 184 205 204 200 233 245 222 227 231 214 232 256 270 271 274 277 275 278 280 282 287 282 289 146 129 157 261 249 296 302 297 293 284 286 282 283 284 289 289 291 285 279 279 278 277 279 284 285 286 289 288 293 289 292 293 292 293 293 291 289 291 291 290 289 288
121 133 141 151 152 144 141 142 142 139 145 146 149 162 184 181 195 186 167 189 219 247 262 262 261 263 227 183 266 282 274 271 274 284 289 301 294 289 292 291 286 283 271 121 310 258 274 314 303 294 253 271 256 261 269 272 283 284 288 292 284 276 268 271 272 281 285 285 284 282 283 285 287 291 292 293 293 293 295 290 289 289 285 287 288
134 142 144 143 147 146 148 147 146 143 159 157 162 159 169 185 260 227 164 182 230 248 253 256 264 285 290 280 250 232 280 284 280 272 285 323 295 287 287 284 279 276 276 70 61 312 302 294 283 271 264 254 265 257 267 271 271 274 273 279 277 277 272 269 277 284 283 282 280 280 279 281 284 287 288 290 293 293 293 294 292 292 290 287 284
131 140 143 148 142 145 143 156 161 155 162 167 166 165 166 184 187 218 216 181 197 232 259 267 285 309 314 314 306 299 293 281 278 294 318 302 289 283 277 275 276 268 357 28 292 292 283 262 262 258 254 251 253 261 265 268 266 267 268 267 272 277 274 273 279 275 271 268 273 277 277 281 283 284 287 289 291 292 294 293 293 291 291 290 288
129 139 151 152 154 156 158 159 162 167 164 168 168 166 176 178 181 202 222 283 272 231 199 184 204 276 295 298 305 304 300 297 298 298 287 287 283 280 277 283 270 286 47 131 298 276 276 266 252 254 244 252 257 263 264 270 263 264 265 264 267 270 272 271 267 265 270 275 276 277 278 278 282 287 290 289 288 290 290 291 292 292 292 290 291
134 129 134 144 150 152 158 159 161 161 162 172 178 180 184 192 181 186 199 215 250 255 262 283 294 270 272 292 295 291 286 282 287 290 291 288 287 289 291 295 293 288 307 309 222 245 241 251 255 251 252 252 260 266 267 261 265 263 265 267 267 270 273 269 266 270 272 277 279 277 278 280 282 282 284 289 291 289 288 287 289 287 289 291 292
143 147 151 149 145 157 156 153 159 162 171 175 174 171 172 180 196 205 206 226 234 253 272 264 269 269 263 265 269 276 278 286 291 290 290 293 293 292 287 279 277 269 252 258 251 244 251 247 250 262 261 261 269 265 265 262 260 261 263 264 268 270 270 270 270 271 273 274 277 279 281 280 281 284 285 283 280 281 283 285 287 287 285 286 289
143 144 148 151 153 149 149 155 158 160 160 163 172 166 182 172 185 206 221 225 231 251 265 285 299 292 243 215 220 222 260 282 285 286 287 286 286 290 268 262 262 266 258 248 241 253 251 251 242 260 266 261 263 268 262 264 267 261 259 258 261 264 265 264 268 272 276 278 278 278 276 277 279 280 281 284 285 283 284 284 286 285 285 286 289
151 150 154 155 153 149 150 156 155 155 157 170 170 173 182 199 204 213 216 223 234 242 257 266 268 278 287 289 181 211 270 277 274 274 266 257 264 249 248 250 250 248 251 249 246 242 255 259 256 255 265 265 261 262 266 268 270 264 264 263 261 260 263 266 265 259 256 263 269 271 274 277 280 281 284 282 285 287 285 284 285 289 289 287 285
144 151 152 149 155 157 159 159 162 171 174 172 175 185 192 195 206 216 218 222 233 236 245 249 251 255 257 268 289 287 289 276 258 260 268 263 251 242 237 246 247 246 249 250 255 259 257 257 258 262 265 258 258 263 262 263 270 265 265 267 268 271 269 266 266 267 266 267 273 275 276 279 282 282 282 284 284 284 283 284 284 285 287 289 290
151 153 163 160 155 164 166 167 163 166 178 171 190 192 200 207 209 211 221 224 239 233 231 238 247 247 255 263 260 275 274 279 280 276 279 276 264 253 243 242 243 251 253 261 252 258 262 259 254 266 264 260 261 257 260 259 259 263 265 262 265 269 268 270 269 268 268 273 276 278 277 278 282 284 283 280 280 284 285 287 285 283 283 286 288
152 152 157 173 168 156 160 164 180 182 176 184 183 195 209 208 217 225 231 235 240 243 245 242 249 256 253 251 260 262 263 268 270 269 268 264 269 266 255 252 248 255 260 252 259 267 263 261 263 266 266 263 258 260 257 253 257 259 259 262 263 264 269 269 268 268 269 271 272 275 278 280 282 285 285 284 283 284 283 283 284 285 287 286 286
159 155 162 167 168 180 181 193 197 192 197 199 209 216 217 218 216 218 224 235 240 251 256 258 254 256 257 260 261 258 258 259 262 261 264 266 269 267 264 261 253 247 254 253 245 258 263 260 261 262 263 263 260 259 258 253 254 254 258 259 261 264 266 271 272 271 270 272 274 272 275 277 279 279 278 280 283 283 284 283 283 286 286 286 290
143 151 171 179 182 188 199 205 204 195 208 209 215 218 219 217 224 230 237 240 244 247 249 253 256 261 261 257 259 257 258 255 256 256 259 264 267 270 270 265 257 248 243 250 264 265 262 258 258 264 264 261 257 257 256 258 258 258 260 259 259 262 264 268 271 271 271 272 274 276 275 278 280 279 281 283 282 283 283 285 285 284 286 291 294
161 164 172 181 197 207 209 207 208 218 216 220 223 224 222 224 231 233 238 242 244 242 244 250 255 256 261 268 263 251 252 258 257 265 266 266 268 270 265 259 258 258 267 266 262 261 258 256 256 263 261 261 260 258 256 258 256 255 257 260 260 259 261 264 264 268 272 276 281 282 283 280 278 280 281 281 282 284 287 287 288 291 294 294 292
168 170 183 200 208 205 214 221 215 219 218 217 222 227 222 225 232 237 236 242 245 244 247 248 250 252 255 260 262 263 264 269 267 267 267 268 269 267 260 262 270 272 270 267 265 262 258 257 257 258 256 260 260 259 256 255 252 251 253 255 258 261 260 261 264 271 274 274 276 279 281 281 281 280 281 283 286 287 287 290 293 294 294 291 295
175 184 193 209 212 215 212 217 216 217 217 224 227 232 233 235 236 233 237 241 244 246 251 253 253 252 257 261 263 256 254 256 257 262 265 266 271 272 267 277 278 275 272 271 269 261 259 257 259 260 259 260 260 259 260 258 257 252 250 249 252 255 260 263 266 268 266 267 268 271 276 277 276 277 280 285 286 287 288 291 291 292 292 294 292
193 207 211 218 220 223 226 222 219 222 224 227 232 233 238 240 238 242 242 240 244 247 249 251 253 259 259 255 254 256 255 253 253 260 261 266 270 273 277 277 276 274 271 268 263 261 259 256 253 255 255 258 260 256 258 260 260 260 257 258 258 257 254 258 259 260 264 264 265 267 269 271 278 281 284 284 286 288 288 288 292 293 292 291 291
198 207 215 213 220 224 229 230 232 233 238 240 234 237 236 236 240 241 246 247 240 241 245 249 254 256 256 257 261 257 255 257 259 260 264 267 270 273 275 274 270 271 273 269 264 260 260 262 262 259 258 256 253 255 257 258 259 259 260 260 258 257 258 256 262 267 268 270 270 270 271 274 279 281 284 285 287 290 291 292 293 294 292 291 292
206 209 214 219 223 228 233 235 239 242 242 240 239 237 236 234 237 242 246 247 252 253 257 258 261 266 265 264 263 262 261 258 258 261 264 267 266 270 269 271 269 269 269 270 268 265 261 263 259 260 260 261 260 257 256 255 257 259 259 259 262 264 265 264 268 274 274 274 273 274 274 273 278 284 286 285 285 288 291 290 290 290 291 291 291
225 226 230 230 234 239 244 242 242 243 242 241 240 240 244 245 247 250 253 254 258 256 260 260 258 260 262 265 263 264 261 258 259 261 267 269 270 273 271 271 268 266 267 269 268 268 266 267 263 260 258 256 256 255 257 257 257 258 260 261 265 268 269 271 269 269 270 269 269 273 280 286 285 283 283 285 286 289 290 289 290 290 291 292 291
229 231 239 242 244 247 243 240 240 238 237 237 237 240 241 244 249 251 252 250 251 254 256 257 255 257 255 259 261 260 260 261 261 266 265 266 269 270 267 265 264 265 266 263 264 265 264 264 266 265 264 264 263 262 260 261 261 260 264 268 271 275 279 279 274 269 269 281 291 292 287 284 283 284 285 287 290 289 289 292 292 291 291 290 292